DateTimeUTC,F1_A11,F1_S11,BsB_S11,BsG_S11,BsR_S11,BbsB_S11,BbsG_S11,BbsR_S11,BaB_A11,BaG_A11,BaR_A11,T_S11,U_S11,P_S11,T1_A11
2020-04-22T00:00:00Z,00000380,21000600,,,,,,,,,,25.0,00.6,0665.6,30.9
2020-04-22T00:01:00Z,00000380,21000600,,,,,,,,,,25.0,00.6,0665.6,30.9
2020-04-22T00:02:00Z,00000380,21000600,,,,,,,,,,25.0,00.6,0665.6,30.9
2020-04-22T00:03:00Z,00000380,61000600,,,,,,,,,,25.0,00.6,0665.6,30.9
2020-04-22T00:04:00Z,00000380,41000600,-000.38,-000.25,0000.16,0001.60,0000.11,0000.47,0000.07,0000.10,0000.16,24.9,00.5,0666.5,30.9
2020-04-22T00:05:00Z,00000380,01000600,-000.28,-000.02,-000.20,0000.67,0000.14,-000.17,-000.06,-000.08,-000.06,24.8,00.5,0666.5,30.9
2020-04-22T00:06:00Z,00000380,01000600,0000.15,-000.54,0000.07,-000.14,-000.05,0000.25,-000.17,0000.06,-000.05,24.8,00.6,0666.5,30.9
2020-04-22T00:07:00Z,00000380,01000600,0000.42,-000.62,-000.15,0000.66,0000.27,0000.05,0000.32,0000.17,0000.16,24.8,00.5,0666.5,30.9
2020-04-22T00:08:00Z,00000380,01000600,-000.44,0000.20,0000.62,0000.74,0000.10,0000.42,-000.09,-000.09,-000.03,24.8,00.6,0666.5,30.9
2020-04-22T00:09:00Z,00000380,01000600,-000.25,-000.23,0000.45,0000.15,0000.35,0000.30,0000.03,-000.07,0000.02,24.8,00.6,0666.6,30.9
2020-04-22T00:10:00Z,00000380,01000600,-001.48,-000.14,-000.31,-000.13,0000.07,0000.28,0000.03,-000.09,-000.07,24.8,00.6,0666.6,30.9
2020-04-22T00:11:00Z,00000380,01000600,0000.66,-000.05,-000.06,0000.11,0000.12,0000.31,-000.15,0000.12,-000.04,24.8,00.6,0666.6,30.9
2020-04-22T00:12:00Z,00000380,01000600,-000.14,0000.43,-000.85,0001.30,0000.01,-000.13,0000.11,-000.03,-000.01,24.8,00.5,0666.6,30.9
2020-04-22T00:13:00Z,00000380,01000600,-000.30,0000.03,-000.11,0000.32,0000.14,0000.00,0000.13,-000.00,0000.12,24.8,00.6,0666.6,30.9
2020-04-22T00:14:00Z,00000380,01000600,-000.64,-000.61,0000.70,-000.20,-000.25,0000.62,-000.00,0000.03,0000.11,24.8,00.6,0666.6,30.9
2020-04-22T00:15:00Z,00000380,01000600,-000.98,0000.13,-000.05,0000.55,0000.14,0000.16,0000.03,-000.02,-000.11,24.8,00.5,0666.6,30.9
2020-04-22T00:16:00Z,00000380,01000600,-000.02,0000.11,0000.69,-000.17,0000.03,0000.42,-000.06,0000.18,-000.02,24.8,00.6,0666.6,30.9
2020-04-22T00:17:00Z,00000380,01000600,-001.17,0000.53,0000.13,0000.53,-000.13,-000.16,-000.08,-000.14,-000.03,24.8,00.5,0666.6,30.9
2020-04-22T00:18:00Z,00000380,01000600,0000.87,0000.18,0000.04,0000.48,-000.05,0000.25,-000.01,-000.04,0000.02,24.8,00.6,0666.6,31.0
2020-04-22T00:19:00Z,00000380,01000600,0000.08,0000.04,-000.57,0000.12,-000.17,0000.27,0000.04,0000.02,-000.03,24.8,00.6,0666.6,31.0
2020-04-22T00:20:00Z,00000380,01000600,0000.23,0000.23,0000.06,-000.52,-000.01,-000.25,-000.18,-000.03,-000.10,24.8,00.5,0666.6,30.9
2020-04-22T00:21:00Z,00000380,01000600,-000.03,0000.34,0000.17,0000.45,0000.29,0000.40,0000.11,-000.17,-000.05,24.8,00.5,0666.6,30.9
2020-04-22T00:22:00Z,00000380,01000600,0000.30,-000.49,0000.81,0000.26,0000.32,-000.08,-000.04,0000.07,-000.03,24.8,00.4,0666.6,30.9
2020-04-22T00:23:00Z,00000380,01000600,-000.62,-000.15,-000.19,-000.08,-000.42,-000.33,-000.08,-000.01,-000.04,24.8,00.4,0666.7,30.9
2020-04-22T00:24:00Z,00000380,01000600,0000.50,-000.45,0000.03,0000.04,-000.03,-000.07,0000.08,0000.01,0000.12,24.8,00.4,0666.6,30.9
2020-04-22T00:25:00Z,00000380,01000600,0000.03,0000.11,-000.04,0000.96,0000.48,0000.24,0000.13,0000.12,0000.09,24.8,00.5,0666.6,30.9
2020-04-22T00:26:00Z,00000380,01000600,-000.29,0000.06,0000.43,0000.12,-000.37,0000.63,0000.12,0000.20,0000.03,24.8,00.5,0666.6,31.0
2020-04-22T00:27:00Z,00000380,01000600,0000.47,0000.17,0000.12,0000.31,0000.29,0000.08,0000.05,0000.10,0000.19,24.8,00.6,0666.6,30.9
2020-04-22T00:28:00Z,00000380,01000600,0000.52,0000.17,-000.24,0000.34,0000.23,-000.21,0000.14,0000.05,-000.07,24.8,00.6,0666.6,30.9
2020-04-22T00:29:00Z,00000380,01000600,0000.77,0000.21,0000.22,0000.81,0000.19,0000.38,-000.23,-000.13,0000.08,24.8,00.6,0666.7,30.9
2020-04-22T00:30:00Z,00000380,01000600,0000.42,0000.08,0000.27,0000.02,-000.10,0000.22,0000.09,0000.04,-000.01,24.8,00.6,0666.7,30.9
2020-04-22T00:31:00Z,00000380,01000600,-001.21,0000.01,-000.52,0000.23,0000.09,0000.12,0000.06,-000.05,-000.04,24.8,00.6,0666.7,31.0
2020-04-22T00:32:00Z,00000380,01000600,0000.60,-000.04,-000.16,-000.12,-000.21,0000.04,-000.15,-000.14,-000.11,24.8,00.5,0666.7,30.9
2020-04-22T00:33:00Z,00000380,01000600,0000.04,0000.00,0000.15,0000.06,0000.12,-000.17,0000.11,0000.17,-000.03,24.8,00.5,0666.7,30.9
2020-04-22T00:34:00Z,00000380,01000600,-000.71,0000.23,0000.31,0000.42,0000.13,0000.36,0000.03,-000.03,0000.12,24.8,00.5,0666.7,30.9
2020-04-22T00:35:00Z,00000380,01000600,0000.45,-000.05,-000.01,0000.14,0000.04,0000.02,-000.10,0000.14,0000.10,24.8,00.6,0666.6,30.9
2020-04-22T00:36:00Z,00000380,01000600,-000.47,0000.32,0000.17,0001.08,0000.28,-000.03,0000.22,0000.02,0000.07,24.8,00.7,0666.6,30.9
2020-04-22T00:37:00Z,00000380,01000600,-000.40,-000.11,-000.05,0000.39,0000.35,0000.22,0000.20,0000.17,0000.26,24.8,00.7,0666.6,30.9
2020-04-22T00:38:00Z,00000380,01000600,0000.97,0000.21,0000.01,0000.67,0000.00,0000.06,0000.05,0000.03,0000.06,24.8,00.8,0666.6,30.9
2020-04-22T00:39:00Z,00000380,01000600,0000.09,-000.17,0000.43,-000.47,0000.31,-000.01,0000.07,0000.14,-000.00,24.8,00.9,0666.6,30.9
2020-04-22T00:40:00Z,00000380,01000600,-000.15,0000.34,0000.25,0000.81,0000.07,-000.02,-000.04,0000.04,0000.11,24.8,00.9,0666.6,30.9
2020-04-22T00:41:00Z,00000380,01000600,-000.21,0000.11,0000.98,0000.47,0000.03,0000.35,0000.18,0000.15,0000.02,24.8,00.9,0666.6,30.9
2020-04-22T00:42:00Z,00000380,01000600,0000.23,0001.00,0000.62,-000.10,0000.13,0000.47,-000.05,-000.06,0000.00,24.8,01.0,0666.6,30.9
2020-04-22T00:43:00Z,00000380,01000600,-000.73,0000.52,0000.36,0000.19,0000.09,0000.20,-000.07,-000.11,-000.15,24.8,00.9,0666.6,30.9
2020-04-22T00:44:00Z,00000380,01000600,0000.85,-000.16,-000.16,0000.61,-000.08,0000.03,-000.18,-000.18,-000.03,24.8,00.8,0666.6,30.9
2020-04-22T00:45:00Z,00000380,01000600,0000.34,0000.39,-000.69,0000.68,-000.14,-000.28,0000.00,-000.05,-000.13,24.7,00.8,0666.6,30.9
2020-04-22T00:46:00Z,00000380,01000600,-000.72,0000.34,0000.27,0000.98,0000.29,0000.05,-000.09,-000.10,-000.17,24.8,00.6,0666.6,30.9
2020-04-22T00:47:00Z,00000380,01000600,-000.14,0000.56,0000.23,-000.38,0000.20,-000.36,0000.02,-000.06,-000.04,24.7,00.6,0666.6,30.9
2020-04-22T00:48:00Z,00000380,01000600,0001.03,0000.02,-000.65,0000.33,0000.56,-000.25,-000.15,-000.24,-000.11,24.7,00.6,0666.6,30.9
2020-04-22T00:49:00Z,00000380,01000600,-000.12,0000.36,-000.18,0000.29,-000.24,-000.28,-000.07,-000.08,-000.08,24.7,00.5,0666.6,30.9
2020-04-22T00:50:00Z,00000380,01000600,0000.15,0000.54,0000.34,-000.47,-000.04,0000.24,-000.12,0000.13,0000.11,24.7,00.5,0666.6,30.9
2020-04-22T00:51:00Z,00000380,01000600,-000.37,-000.19,-000.04,-000.24,-000.35,0000.28,-000.09,-000.12,-000.13,24.7,00.5,0666.6,30.9
2020-04-22T00:52:00Z,00000380,01000600,0000.12,-000.35,0000.76,0000.18,-000.00,0000.37,0000.14,0000.12,-000.04,24.7,00.4,0666.6,30.9
2020-04-22T00:53:00Z,00000380,01000600,-000.00,0000.10,0000.47,0000.29,0000.03,0000.60,0000.03,-000.13,0000.03,24.7,00.5,0666.6,30.9
2020-04-22T00:54:00Z,00000380,01000600,0000.58,-000.18,0000.51,0000.80,0000.25,0000.32,0000.08,0000.21,0000.02,24.7,00.4,0666.6,30.9
2020-04-22T00:55:00Z,00000380,01000600,0000.08,0000.07,-000.08,0000.25,0000.01,0000.06,0000.12,0000.09,0000.05,24.7,00.5,0666.6,30.9
2020-04-22T00:56:00Z,00000380,01000600,0000.14,0000.25,0000.53,0000.17,0000.08,0000.19,-000.09,-000.05,0000.01,24.7,00.5,0666.6,30.9
2020-04-22T00:57:00Z,00000380,41000600,,,,,,,,,,24.7,00.8,0666.5,30.9
2020-04-22T00:58:00Z,00000380,61000600,,,,,,,,,,24.8,00.4,0665.6,30.9
2020-04-22T00:59:00Z,00000380,21000600,,,,,,,,,,24.9,00.4,0665.6,30.9
2020-04-22T01:00:00Z,00000380,21000600,,,,,,,,,,24.9,00.4,0665.6,30.9
2020-04-22T01:01:00Z,00000380,21000600,,,,,,,,,,24.9,00.4,0665.5,30.9
2020-04-22T01:02:00Z,00000380,21000600,,,,,,,,,,24.9,00.4,0665.5,30.9
2020-04-22T01:03:00Z,00000380,61000600,,,,,,,,,,24.9,00.4,0665.5,30.9
2020-04-22T01:04:00Z,00000380,41000600,0000.35,0000.01,-000.03,-000.28,0000.04,-000.85,0000.07,-000.02,-000.03,24.8,00.5,0666.4,30.9
2020-04-22T01:05:00Z,00000380,01000600,0000.81,0000.11,-000.42,0000.46,-000.01,-000.59,0000.05,0000.06,0000.17,24.8,00.5,0666.5,30.9
2020-04-22T01:06:00Z,00000380,01000600,0000.86,0000.36,-000.04,-000.03,-000.20,-000.01,-000.07,-000.07,-000.15,24.7,00.6,0666.5,30.9
2020-04-22T01:07:00Z,00000380,01000600,0000.40,0000.02,-000.23,-000.30,0000.08,-000.14,0000.08,0000.16,0000.09,24.7,00.6,0666.5,30.9
2020-04-22T01:08:00Z,00000380,01000600,0000.54,0000.02,-000.11,0000.13,0000.06,-000.05,0000.04,0000.01,0000.12,24.7,00.6,0666.5,30.9
2020-04-22T01:09:00Z,00000380,01000600,0000.49,0000.15,-000.30,0000.71,0000.22,-000.40,-000.07,-000.27,0000.00,24.7,00.6,0666.5,30.9
2020-04-22T01:10:00Z,00000380,01000600,0000.31,0000.23,-000.02,0000.17,-000.17,-000.12,0000.09,0000.19,0000.04,24.7,00.6,0666.5,30.9
2020-04-22T01:11:00Z,00000380,01000600,0000.29,0000.10,-000.39,0000.53,-000.08,-000.34,-000.07,0000.16,-000.12,24.7,00.6,0666.5,30.9
2020-04-22T01:12:00Z,00000380,01000600,0000.67,0000.21,-000.06,0001.10,0000.52,-000.23,0000.12,-000.03,0000.10,24.7,00.7,0666.5,30.9
2020-04-22T01:13:00Z,00000380,01000600,0000.98,0000.25,-000.05,0000.71,0000.08,0000.42,-000.05,0000.20,0000.13,24.7,00.7,0666.5,30.9
2020-04-22T01:14:00Z,00000380,01000600,-000.45,0000.25,-000.16,-000.14,-000.01,-000.47,0000.21,-000.06,-000.06,24.7,00.7,0666.5,30.9
2020-04-22T01:15:00Z,00000380,01000600,0000.18,-000.03,0000.16,-000.35,0000.24,0000.11,-000.00,0000.11,0000.08,24.7,00.8,0666.5,30.9
2020-04-22T01:16:00Z,00000380,01000600,0000.43,-000.12,-000.00,0000.82,-000.15,-000.03,-000.13,-000.09,0000.02,24.7,00.7,0666.5,30.9
2020-04-22T01:17:00Z,00000380,01000600,0000.40,-000.18,-000.47,0000.10,-000.15,-000.22,0000.08,0000.04,0000.07,24.7,00.7,0666.5,30.9
2020-04-22T01:18:00Z,00000380,01000600,0000.29,0000.13,-000.23,0000.14,0000.59,0000.10,0000.13,0000.04,-000.05,24.7,00.8,0666.5,30.9
2020-04-22T01:19:00Z,00000380,01000600,0000.38,0000.16,0000.33,0000.38,-000.50,0000.18,0000.06,0000.18,0000.22,24.7,00.8,0666.5,30.9
2020-04-22T01:20:00Z,00000380,01000600,0000.44,-000.44,-000.41,0000.70,0000.08,-000.56,0000.17,0000.08,0000.05,24.7,00.9,0666.5,30.9
2020-04-22T01:21:00Z,00000380,01000600,0000.74,0000.31,-000.14,0000.49,0000.41,-000.10,0000.01,0000.10,0000.13,24.7,00.9,0666.5,30.9
2020-04-22T01:22:00Z,00000380,01000600,0000.60,0000.28,-000.16,0000.08,0000.53,-000.37,-000.01,0000.06,0000.02,24.7,01.0,0666.5,30.9
2020-04-22T01:23:00Z,00000380,01000600,0000.40,0000.13,-000.26,0000.38,0000.09,-000.24,-000.12,-000.14,-000.15,24.7,00.9,0666.5,30.9
2020-04-22T01:24:00Z,00000380,01000600,0001.46,0000.34,-000.17,0001.06,-000.16,0000.10,0000.03,0000.06,0000.17,24.7,00.9,0666.5,30.9
2020-04-22T01:25:00Z,00000380,01000600,0000.16,0000.29,-000.29,0000.43,0000.13,-000.40,-000.10,-000.21,-000.09,24.6,00.9,0666.5,30.9
2020-04-22T01:26:00Z,00000380,01000600,0001.13,-000.04,-000.03,0000.42,0000.13,0000.08,-000.07,-000.02,-000.23,24.6,00.7,0666.5,30.9
2020-04-22T01:27:00Z,00000380,01000600,0000.52,0000.39,-000.38,0001.31,-000.12,-000.28,-000.11,-000.09,-000.01,24.6,00.6,0666.5,30.9
2020-04-22T01:28:00Z,00000380,01000600,0000.87,0000.26,-000.38,-000.05,-000.08,0000.03,0000.19,0000.07,-000.05,24.6,00.6,0666.5,30.9
2020-04-22T01:29:00Z,00000380,01000600,0000.53,0000.03,-000.05,0001.10,0000.17,-000.30,-000.11,0000.04,0000.01,24.6,00.6,0666.5,30.9
2020-04-22T01:30:00Z,00000380,01000600,-000.85,0000.28,-000.59,-000.07,0000.36,-000.20,-000.06,0000.11,0000.14,24.6,00.7,0666.5,30.9
2020-04-22T01:31:00Z,00000380,01000600,0001.34,0000.20,0000.32,0000.41,0000.15,-000.21,0000.03,-000.15,-000.10,24.6,00.7,0666.5,30.9
2020-04-22T01:32:00Z,00000380,01000600,0000.68,0000.06,0000.01,0000.78,-000.12,-000.34,-000.11,-000.01,-000.00,24.6,00.7,0666.5,30.9
2020-04-22T01:33:00Z,00000380,01000600,0000.22,0000.62,-000.01,0000.38,0000.14,-000.49,-000.10,-000.16,-000.09,24.6,00.6,0666.5,30.9
2020-04-22T01:34:00Z,00000380,01000600,0001.34,0000.33,-000.27,0000.81,0000.25,-000.34,-000.02,-000.10,-000.03,24.6,00.5,0666.5,30.9
2020-04-22T01:35:00Z,00000380,01000600,-000.58,0000.43,-000.04,0000.50,0000.46,0000.05,0000.02,-000.07,-000.14,24.6,00.5,0666.5,30.9
2020-04-22T01:36:00Z,00000380,01000600,0000.11,0000.09,-000.20,0000.02,-000.32,-000.05,-000.08,0000.07,0000.01,24.6,00.4,0666.5,30.9
2020-04-22T01:37:00Z,00000380,01000600,0000.18,0000.55,-000.24,0000.08,0000.02,0000.09,-000.07,-000.27,-000.04,24.6,00.4,0666.5,30.9
2020-04-22T01:38:00Z,00000380,01000600,-000.24,0000.02,0000.32,0000.92,-000.07,0000.23,0000.15,0000.25,0000.01,24.6,00.4,0666.5,30.9
2020-04-22T01:39:00Z,00000380,01000600,0000.89,-000.11,-000.30,-000.36,-000.01,-000.47,-000.18,-000.17,-000.09,24.6,00.4,0666.5,30.9
2020-04-22T01:40:00Z,00000380,01000600,-000.07,0000.36,-000.50,-000.27,-000.11,-000.20,0000.12,-000.03,-000.15,24.6,00.3,0666.5,30.9
2020-04-22T01:41:00Z,00000380,01000600,0000.54,0000.47,-000.18,0000.11,-000.12,0000.12,0000.03,0000.20,0000.25,24.5,00.4,0666.4,30.9
2020-04-22T01:42:00Z,00000380,01000600,-000.01,0000.08,0000.39,0000.46,0000.37,-000.49,0000.12,0000.09,0000.22,24.6,00.5,0666.4,30.9
2020-04-22T01:43:00Z,00000380,01000600,0000.06,-000.26,-000.25,-000.44,0000.24,-000.29,0000.19,0000.28,0000.12,24.5,00.6,0666.4,30.9
2020-04-22T01:44:00Z,00000380,01000600,0000.33,0000.41,0000.14,0000.10,0000.04,0000.35,-000.02,-000.02,0000.01,24.5,00.6,0666.4,30.9
2020-04-22T01:45:00Z,00000380,01000600,0001.27,0000.16,-000.13,0000.59,-000.03,-000.59,0000.03,-000.03,0000.05,24.5,00.7,0666.4,30.9
2020-04-22T01:46:00Z,00000380,01000600,0000.06,0000.12,-000.19,0000.48,-000.11,0000.30,0000.01,0000.10,0000.03,24.5,00.7,0666.3,30.9
2020-04-22T01:47:00Z,00000380,01000600,-001.06,0000.94,0000.15,0000.16,-000.07,-000.11,-000.03,0000.05,-000.05,24.5,00.7,0666.3,30.9
2020-04-22T01:48:00Z,00000380,01000600,-000.52,0000.61,-000.33,0000.23,0000.24,0000.00,0000.11,-000.13,0000.17,24.5,00.6,0666.3,30.9
2020-04-22T01:49:00Z,00000380,01000600,0001.34,0000.29,-000.34,-000.25,0000.31,-000.48,0000.13,0000.06,0000.01,24.5,00.7,0666.3,30.9
2020-04-22T01:50:00Z,00000380,01000600,0000.16,-000.22,-000.63,0000.46,-000.08,-000.28,0000.08,0000.14,0000.04,24.5,00.7,0666.3,30.9
2020-04-22T01:51:00Z,00000380,01000600,-000.74,0000.20,-000.02,0000.44,-000.19,-000.33,-000.22,-000.07,-000.04,24.5,00.7,0666.3,30.9
2020-04-22T01:52:00Z,00000380,01000600,0001.18,-000.00,-000.32,0000.16,0000.05,-000.19,-000.06,-000.14,-000.06,24.5,00.6,0666.3,30.9
2020-04-22T01:53:00Z,00000380,01000600,0000.01,0000.11,-000.63,0000.19,0000.07,-000.48,0000.13,0000.14,-000.12,24.5,00.7,0666.3,30.9
2020-04-22T01:54:00Z,00000380,01000600,-000.04,0000.68,-000.46,0000.62,0000.17,0000.04,-000.08,-000.06,0000.15,24.5,00.7,0666.3,30.9
2020-04-22T01:55:00Z,00000380,01000600,0000.23,0000.50,0000.20,-000.36,0000.17,-000.14,-000.01,0000.15,0000.08,24.5,00.6,0666.3,30.9
2020-04-22T01:56:00Z,00000380,01000600,0000.45,-000.19,-000.24,-000.25,0000.59,-000.46,0000.14,-000.03,0000.06,24.5,00.7,0666.3,30.9
2020-04-22T01:57:00Z,00000380,41000600,,,,,,,,,,24.6,01.0,0666.3,30.9
2020-04-22T01:58:00Z,00000380,61000600,,,,,,,,,,24.7,00.6,0665.3,30.9
2020-04-22T01:59:00Z,00000380,21000600,,,,,,,,,,24.8,00.6,0665.3,30.9
2020-04-22T02:00:00Z,00000380,21000600,,,,,,,,,,24.8,00.6,0665.3,30.9
2020-04-22T02:01:00Z,00000380,21000600,,,,,,,,,,24.8,00.6,0665.3,30.9
2020-04-22T02:02:00Z,00000380,21000600,,,,,,,,,,24.8,00.6,0665.3,30.9
2020-04-22T02:03:00Z,00000380,61000600,,,,,,,,,,24.8,00.6,0665.3,30.9
2020-04-22T02:04:00Z,00000380,41000600,0000.28,-000.43,0000.29,0000.44,0000.23,0000.43,0000.00,0000.02,0000.20,24.6,00.7,0666.1,30.9
2020-04-22T02:05:00Z,00000380,01000600,0001.04,0000.37,-000.05,0000.02,0000.06,0000.29,-000.09,-000.21,-000.15,24.6,00.7,0666.2,30.9
2020-04-22T02:06:00Z,00000380,01000600,-001.61,-000.35,0000.18,0000.23,-000.02,0000.37,0000.13,0000.22,0000.11,24.6,00.6,0666.2,30.9
2020-04-22T02:07:00Z,00000380,01000600,-000.90,0000.09,0000.29,-000.15,0000.18,-000.08,-000.04,0000.10,-000.07,24.6,00.6,0666.2,30.9
2020-04-22T02:08:00Z,00000380,01000600,-001.26,-000.26,-000.10,0000.60,0000.12,0000.12,0000.15,-000.06,-000.01,24.6,00.7,0666.2,30.9
2020-04-22T02:09:00Z,00000380,01000600,0000.02,-000.42,0000.23,0000.50,0000.29,0000.14,-000.08,-000.02,-000.05,24.6,00.7,0666.2,30.9
2020-04-22T02:10:00Z,00000380,01000600,-000.41,0000.18,0000.16,0000.72,0000.36,0000.24,-000.07,0000.11,0000.14,24.6,00.7,0666.2,30.9
2020-04-22T02:11:00Z,00000380,01000600,-000.46,0000.19,0000.17,-000.49,0000.18,-000.28,0000.03,-000.16,-000.21,24.6,00.7,0666.2,30.9
2020-04-22T02:12:00Z,00000380,01000600,-001.65,0000.78,0000.31,0000.47,0000.10,0000.31,0000.06,0000.02,0000.13,24.6,00.7,0666.2,30.9
2020-04-22T02:13:00Z,00000380,01000600,-000.77,0000.78,-000.08,0000.86,0000.35,-000.12,-000.06,0000.04,0000.09,24.6,00.7,0666.2,30.9
2020-04-22T02:14:00Z,00000380,01000600,-000.05,-000.78,-000.08,-000.28,0000.32,-000.12,-000.00,0000.01,-000.15,24.6,00.6,0666.2,30.9
2020-04-22T02:15:00Z,00000380,01000600,-001.94,0000.03,0000.64,-000.40,0000.11,-000.21,-000.01,-000.15,-000.15,24.6,00.7,0666.2,30.9
2020-04-22T02:16:00Z,00000380,01000600,-000.19,-000.09,-000.42,0000.61,0000.41,0000.39,-000.05,0000.06,0000.04,24.6,00.5,0666.2,30.9
2020-04-22T02:17:00Z,00000380,01000600,-000.75,0000.02,0000.11,-000.85,-000.00,0000.25,-000.18,-000.22,-000.13,24.6,00.5,0666.2,30.9
2020-04-22T02:18:00Z,00000380,01000600,-000.57,-000.24,0000.08,0000.64,0000.40,-000.08,0000.03,-000.01,-000.02,24.6,00.4,0666.2,31.0
2020-04-22T02:19:00Z,00000380,01000600,-000.71,0000.22,-000.20,0000.34,0000.09,0000.28,-000.07,-000.11,-000.08,24.6,00.4,0666.2,30.9
2020-04-22T02:20:00Z,00000380,01000600,-000.58,-000.07,0000.28,-000.25,0000.11,-000.25,-000.05,-000.02,-000.07,24.6,00.4,0666.2,30.9
2020-04-22T02:21:00Z,00000380,01000600,-000.94,-000.07,0000.00,0000.25,0000.18,-000.07,-000.00,0000.09,-000.06,24.6,00.4,0666.3,30.9
2020-04-22T02:22:00Z,00000380,01000600,-001.44,-000.23,0000.28,-000.25,0000.18,-000.18,0000.14,0000.02,0000.13,24.6,00.4,0666.3,30.9
2020-04-22T02:23:00Z,00000380,01000600,0000.32,-000.04,-000.17,-000.02,-000.32,0000.30,-000.02,0000.03,0000.03,24.6,00.4,0666.2,30.9
2020-04-22T02:24:00Z,00000380,01000600,-000.21,-000.27,-000.06,0000.47,0000.25,0000.05,0000.15,0000.09,0000.02,24.6,00.3,0666.2,30.9
2020-04-22T02:25:00Z,00000380,01000600,0000.05,0000.56,0000.73,0000.46,0000.27,0000.67,-000.07,0000.03,0000.03,24.6,00.4,0666.2,30.9
2020-04-22T02:26:00Z,00000380,01000600,0000.64,-000.15,0000.08,-000.20,0000.34,0000.20,0000.14,0000.02,0000.15,24.6,00.4,0666.2,30.9
2020-04-22T02:27:00Z,00000380,01000600,-000.14,-000.00,0000.29,0000.36,-000.06,0000.25,0000.12,0000.12,0000.16,24.6,00.5,0666.2,30.9
2020-04-22T02:28:00Z,00000380,01000600,-001.12,-000.16,0000.24,0000.38,0000.25,0000.20,0000.08,0000.09,-000.08,24.6,00.5,0666.2,30.9
2020-04-22T02:29:00Z,00000380,01000600,-001.75,-000.22,0000.55,0000.46,0000.15,-000.10,-000.07,0000.01,0000.01,24.6,00.5,0666.2,30.9
2020-04-22T02:30:00Z,00000380,01000600,-000.83,0000.63,0000.13,-000.39,0000.15,0000.37,-000.09,-000.06,-000.20,24.6,00.5,0666.2,30.9
2020-04-22T02:31:00Z,00000380,01000600,-001.29,0000.41,0000.23,0000.33,0000.50,0000.08,0000.05,-000.14,0000.13,24.6,00.5,0666.2,30.9
2020-04-22T02:32:00Z,00000380,01000600,-001.16,-000.41,0000.38,0000.22,0000.15,0000.20,-000.09,0000.02,-000.12,24.6,00.4,0666.2,30.9
2020-04-22T02:33:00Z,00000380,01000600,-000.54,0000.38,-000.09,0000.44,0000.24,0000.23,0000.03,-000.05,0000.03,24.6,00.4,0666.2,30.9
2020-04-22T02:34:00Z,00000380,01000600,0000.05,0000.37,-000.09,-000.05,0000.26,0000.02,-000.01,-000.14,-000.19,24.6,00.4,0666.2,30.9
2020-04-22T02:35:00Z,00000380,01000600,-000.71,-000.11,-000.11,0000.64,0000.26,-000.05,0000.01,0000.06,0000.07,24.5,00.3,0666.2,30.9
2020-04-22T02:36:00Z,00000380,01000600,0001.13,-000.18,-000.02,0000.55,0000.18,0000.16,-000.00,0000.09,0000.05,24.6,00.4,0666.1,30.9
2020-04-22T02:37:00Z,00000380,01000600,0000.93,0000.52,-000.26,-000.01,0000.73,0000.04,0000.18,0000.09,0000.00,24.5,00.4,0666.2,30.9
2020-04-22T02:38:00Z,00000380,01000600,0000.98,-000.04,-000.23,0000.06,0000.63,0000.00,-000.22,-000.01,-000.01,24.5,00.4,0666.2,30.9
2020-04-22T02:39:00Z,00000380,01000600,-000.52,-000.09,0000.32,0000.58,0000.68,0000.04,0000.05,0000.03,0000.06,24.5,00.3,0666.2,30.9
2020-04-22T02:40:00Z,00000380,01000600,-000.55,0000.50,-000.33,-000.62,0000.02,0000.38,-000.01,0000.02,0000.03,24.5,00.3,0666.1,30.9
2020-04-22T02:41:00Z,00000380,01000600,-000.32,-000.39,0000.23,0000.31,0000.26,0000.36,0000.11,-000.08,0000.10,24.5,00.3,0666.1,30.9
2020-04-22T02:42:00Z,00000380,01000600,0000.16,0000.61,0000.17,-000.64,0000.11,0000.24,0000.04,0000.24,0000.10,24.5,00.4,0666.1,30.9
2020-04-22T02:43:00Z,00000380,01000600,-000.75,-000.22,0000.06,-000.20,0000.26,-000.02,0000.18,0000.00,0000.14,24.5,00.5,0666.1,30.9
2020-04-22T02:44:00Z,00000380,01000600,0000.34,0000.39,0000.50,0000.25,0000.86,0000.24,0000.13,0000.25,0000.02,24.5,00.6,0666.1,30.9
2020-04-22T02:45:00Z,00000380,01000600,-001.90,-000.22,0000.81,0000.03,0000.14,0000.25,0000.18,-000.08,0000.17,24.5,00.6,0666.1,30.9
2020-04-22T02:46:00Z,00000380,01000600,0000.51,0000.19,-000.05,0000.70,-000.06,-000.15,-000.09,0000.15,0000.09,24.5,00.6,0666.1,30.9
2020-04-22T02:47:00Z,00000380,01000600,-000.68,-000.04,0000.66,-000.34,0000.62,-000.35,0000.06,-000.17,-000.15,24.5,00.6,0666.1,30.9
2020-04-22T02:48:00Z,00000380,01000600,0000.63,-000.38,-000.17,0000.48,0000.21,-000.15,-000.16,-000.05,-000.16,24.5,00.5,0666.1,30.9
2020-04-22T02:49:00Z,00000380,01000600,-000.05,0000.64,0000.05,-000.07,0000.50,0000.01,0000.05,0000.08,0000.10,24.5,00.5,0666.1,30.9
2020-04-22T02:50:00Z,00000380,01000600,-000.31,0000.06,0000.07,-000.20,0000.27,-000.02,0000.05,0000.02,-000.10,24.5,00.5,0666.1,30.9
2020-04-22T02:51:00Z,00000380,01000600,0000.93,0000.32,0000.30,-000.02,0000.41,0000.10,0000.01,0000.11,0000.12,24.4,00.5,0666.1,30.9
2020-04-22T02:52:00Z,00000380,01000600,-000.22,-000.19,-000.09,0000.15,0000.38,-000.09,0000.06,-000.05,0000.02,24.4,00.5,0666.1,30.9
2020-04-22T02:53:00Z,00000380,01000600,0000.28,-000.05,-000.19,0000.54,0000.16,0000.11,0000.01,0000.10,0000.11,24.4,00.5,0666.1,30.9
2020-04-22T02:54:00Z,00000380,01000600,0000.01,0000.10,-000.01,0000.20,0000.03,0000.18,0000.04,0000.09,0000.01,24.4,00.6,0666.1,30.9
2020-04-22T02:55:00Z,00000380,01000600,0000.10,-000.03,-000.18,0000.28,-000.09,0000.03,0000.18,0000.02,0000.05,24.4,00.6,0666.1,30.9
2020-04-22T02:56:00Z,00000380,01000600,-000.89,-000.06,-000.21,0000.69,0000.31,0000.00,0000.09,0000.10,0000.03,24.5,00.7,0666.1,30.9
2020-04-22T02:57:00Z,00000380,41000600,,,,,,,,,,24.5,00.4,0666.0,30.9
2020-04-22T02:58:00Z,00000380,61000600,,,,,,,,,,24.5,00.6,0665.1,30.9
2020-04-22T02:59:00Z,00000380,21000600,,,,,,,,,,24.6,00.6,0665.1,30.9
2020-04-22T03:00:00Z,00000380,21000600,,,,,,,,,,24.7,00.5,0665.1,30.9
2020-04-22T03:01:00Z,00000380,21000600,,,,,,,,,,24.7,00.4,0665.1,30.9
2020-04-22T03:02:00Z,00000380,21000600,,,,,,,,,,24.7,00.4,0665.1,30.9
2020-04-22T03:03:00Z,00000380,61000600,,,,,,,,,,24.7,00.4,0665.1,30.9
2020-04-22T03:04:00Z,00000380,41000600,0001.08,0000.14,0000.26,0000.48,-000.18,-000.07,-000.02,0000.02,0000.02,24.5,00.5,0666.0,30.9
2020-04-22T03:05:00Z,00000380,01000600,0000.90,0000.47,0000.50,0000.77,-000.28,0000.17,0000.02,-000.01,-000.04,24.5,00.6,0666.1,30.9
2020-04-22T03:06:00Z,00000380,01000600,0000.88,0000.16,0000.34,0000.67,0000.01,0000.44,0000.08,0000.18,0000.35,24.4,00.7,0666.1,30.9
2020-04-22T03:07:00Z,00000380,01000600,0000.97,0000.29,0000.53,-000.18,0000.06,0000.34,0000.05,-000.10,-000.09,24.5,00.7,0666.1,30.9
2020-04-22T03:08:00Z,00000380,01000600,0000.51,0000.59,0000.54,0000.40,-000.12,0000.28,-000.05,0000.04,-000.02,24.5,00.6,0666.1,30.9
2020-04-22T03:09:00Z,00000380,01000600,0001.01,0000.83,0000.16,0000.16,0000.27,0000.09,0000.03,-000.05,0000.05,24.5,00.6,0666.1,30.9
2020-04-22T03:10:00Z,00000380,01000600,0000.12,0000.35,0000.51,0000.53,0000.28,0000.13,-000.08,0000.07,-000.07,24.5,00.6,0666.0,30.9